Location: Roc des P�zouls
(43.9667°N, 3.5500°E)
Time: 12:43:00
(UTC+00:00)

Cosmos 1697 Rocket - Pass Details

Date: 14 November 2019
Orbit: 834 x 842 km, 71.0° (Epoch: 10 December)

Event Time Altitude Azimuth Distance (km) Brightness Sun altitude
Exits shadow 04:45:05 40° 268° (W) 1,214 3.0 -20.5°
Maximum altitude 04:45:37 41° 253° (WSW) 1,192 3.0 -20.4°
Drops below altitude 10° 04:50:49 10° 185° (S) 2,436 5.1 -19.5°
Sets 04:53:21 0° 178° (S) 3,365 5.9 -19.0°
